| time (UTC) | temp C | wind direction | speed KPH | gust KPH | rain 1hr cm | rain 24hr cm | rain mn cm | humidity % | barometer mb |
| 20260906090418 | 20 | 172 | 0.0 | 0.0 | 0.00 | 0.00 | 0.00 | 86 | 1013.5 |
| 20260906085912 | 20 | 172 | 0.0 | 0.0 | 0.00 | 0.00 | 0.00 | 86 | 1013.4 |
| 20260906085411 | 21 | 172 | 0.0 | 0.0 | 0.00 | 0.00 | 0.00 | 86 | 1013.3 |
| 20260906084906 | 21 | 172 | 0.0 | 0.0 | 0.00 | 0.00 | 0.00 | 86 | 1013.4 |
| 20260906084406 | 21 | 172 | 0.0 | 0.0 | 0.00 | 0.00 | 0.00 | 86 | 1013.0 |
| 20260906083900 | 21 | 172 | 0.0 | 0.0 | 0.00 | 0.00 | 0.00 | 86 | 1013.2 |
| 20260906083356 | 20 | 172 | 0.0 | 0.0 | 0.00 | 0.00 | 0.00 | 86 | 1013.2 |
| 20260906082855 | 20 | 172 | 0.0 | 0.0 | 0.00 | 0.00 | 0.00 | 86 | 1013.1 |
| 20260906082350 | 20 | 172 | 0.0 | 0.0 | 0.00 | 0.00 | 0.00 | 86 | 1013.2 |
| 20260906081846 | 20 | 172 | 0.0 | 0.0 | 0.00 | 0.00 | 0.00 | 86 | 1013.3 |
| 20260906081342 | 21 | 173 | 0.0 | 0.0 | 0.00 | 0.00 | 0.00 | 86 | 1013.1 |
| 20260906080837 | 21 | 173 | 0.0 | 0.0 | 0.00 | 0.00 | 0.00 | 86 | 1013.3 |
| 20260906080334 | 21 | 173 | 0.0 | 0.0 | 0.00 | 0.00 | 0.00 | 86 | 1013.0 |
| 20260906075828 | 21 | 172 | 0.0 | 0.0 | 0.00 | 0.00 | 0.00 | 86 | 1013.0 |
| 20260906075327 | 21 | 172 | 0.0 | 0.0 | 0.00 | 0.00 | 0.00 | 86 | 1013.1 |
| 20260906074823 | 21 | 172 | 0.0 | 0.0 | 0.00 | 0.00 | 0.00 | 86 | 1013.3 |
| 20260906074323 | 21 | 172 | 0.0 | 0.0 | 0.00 | 0.00 | 0.00 | 86 | 1013.0 |
| 20260906073821 | 21 | 172 | 0.0 | 0.0 | 0.00 | 0.00 | 0.00 | 86 | 1013.0 |
| 20260906073316 | 21 | 173 | 0.0 | 0.0 | 0.00 | 0.00 | 0.00 | 86 | 1013.0 |
| 20260906072813 | 21 | 172 | 0.0 | 0.0 | 0.00 | 0.00 | 0.00 | 86 | 1013.1 |
| 20260906072308 | 21 | 164 | 0.0 | 0.0 | 0.00 | 0.00 | 0.00 | 86 | 1013.1 |
| 20260906071804 | 21 | 174 | 0.0 | 0.0 | 0.00 | 0.00 | 0.00 | 86 | 1013.0 |
| 20260906071304 | 21 | 174 | 0.0 | 0.0 | 0.00 | 0.00 | 0.00 | 86 | 1013.0 |
| 20260906070800 | 21 | 174 | 0.0 | 0.0 | 0.00 | 0.00 | 0.00 | 86 | 1013.1 |
| 20260906070256 | 21 | 174 | 0.0 | 0.0 | 0.00 | 0.00 | 0.00 | 86 | 1013.1 |
| 20260906065750 | 21 | 174 | 0.0 | 0.0 | 0.00 | 0.00 | 0.00 | 86 | 1013.3 |
| 20260906065246 | 21 | 174 | 0.0 | 0.0 | 0.00 | 0.00 | 0.00 | 86 | 1013.2 |
| 20260906064741 | 21 | 174 | 0.0 | 0.0 | 0.00 | 0.00 | 0.00 | 86 | 1013.2 |
| 20260906064237 | 21 | 174 | 0.0 | 0.0 | 0.00 | 0.00 | 0.00 | 86 | 1013.1 |
| 20260906063732 | 21 | 174 | 0.0 | 0.0 | 0.00 | 0.00 | 0.00 | 86 | 1013.0 |
| 20260906063227 | 21 | 174 | 0.0 | 0.0 | 0.00 | 0.00 | 0.00 | 86 | 1013.0 |
| 20260906062722 | 21 | 174 | 0.0 | 0.0 | 0.00 | 0.00 | 0.00 | 86 | 1013.2 |
| 20260906062221 | 21 | 174 | 0.0 | 0.0 | 0.00 | 0.00 | 0.00 | 86 | 1013.5 |
| 20260906061718 | 21 | 174 | 0.0 | 0.0 | 0.00 | 0.00 | 0.00 | 85 | 1013.2 |
| 20260906061214 | 21 | 174 | 0.0 | 0.0 | 0.00 | 0.00 | 0.00 | 85 | 1013.3 |
| 20260906060709 | 21 | 174 | 0.0 | 0.0 | 0.00 | 0.00 | 0.00 | 85 | 1013.6 |
| 20260906060206 | 21 | 174 | 0.0 | 0.0 | 0.00 | 0.00 | 0.00 | 85 | 1013.6 |
| 20260906055702 | 21 | 174 | 0.0 | 0.0 | 0.00 | 0.00 | 0.00 | 86 | 1013.7 |
| 20260906055156 | 21 | 174 | 0.0 | 0.0 | 0.00 | 0.00 | 0.00 | 85 | 1013.9 |
| 20260906054652 | 21 | 174 | 0.0 | 0.0 | 0.00 | 0.00 | 0.00 | 85 | 1013.8 |
| 20260906054151 | 21 | 174 | 0.0 | 0.0 | 0.00 | 0.00 | 0.00 | 85 | 1013.8 |
| 20260906053648 | 21 | 174 | 0.0 | 0.0 | 0.00 | 0.00 | 0.00 | 85 | 1013.9 |
| 20260906053144 | 21 | 174 | 0.0 | 0.0 | 0.00 | 0.00 | 0.00 | 86 | 1014.1 |
| 20260906052639 | 21 | 174 | 0.0 | 0.0 | 0.00 | 0.00 | 0.00 | 86 | 1014.0 |
| 20260906052136 | 21 | 173 | 0.0 | 0.0 | 0.00 | 0.00 | 0.00 | 85 | 1014.2 |
| 20260906051632 | 21 | 173 | 0.0 | 0.0 | 0.00 | 0.00 | 0.00 | 86 | 1014.0 |
| 20260906051131 | 21 | 173 | 0.0 | 0.0 | 0.00 | 0.00 | 0.00 | 85 | 1014.2 |
| 20260906050627 | 21 | 173 | 0.0 | 0.0 | 0.00 | 0.00 | 0.00 | 85 | 1014.3 |
| 20260906050122 | 21 | 174 | 0.0 | 0.0 | 0.00 | 0.00 | 0.00 | 85 | 1014.4 |
| 20260906045620 | 21 | 173 | 0.0 | 0.0 | 0.00 | 0.00 | 0.00 | 85 | 1014.3 |
| 20260906045115 | 21 | 173 | 0.0 | 0.0 | 0.00 | 0.00 | 0.00 | 85 | 1014.5 |
| 20260906044611 | 21 | 173 | 0.0 | 0.0 | 0.00 | 0.00 | 0.00 | 85 | 1014.5 |
| 20260906044106 | 22 | 173 | 0.0 | 0.0 | 0.00 | 0.00 | 0.00 | 85 | 1014.4 |
| 20260906043603 | 21 | 167 | 0.0 | 0.0 | 0.00 | 0.00 | 0.00 | 85 | 1014.5 |
| 20260906043058 | 22 | 150 | 0.0 | 0.0 | 0.00 | 0.00 | 0.00 | 85 | 1014.5 |
| 20260906042557 | 21 | 178 | 0.0 | 0.0 | 0.00 | 0.00 | 0.00 | 85 | 1014.6 |
| 20260906042052 | 22 | 178 | 0.0 | 0.0 | 0.00 | 0.00 | 0.00 | 85 | 1014.5 |
| 20260906041548 | 22 | 175 | 0.0 | 0.0 | 0.00 | 0.00 | 0.00 | 84 | 1014.5 |
| 20260906041043 | 22 | 175 | 0.0 | 0.0 | 0.00 | 0.00 | 0.00 | 84 | 1014.5 |
| 20260906040537 | 22 | 175 | 0.0 | 0.0 | 0.00 | 0.00 | 0.00 | 84 | 1014.5 |
| 20260906040028 | 22 | 154 | 0.0 | 0.0 | 0.00 | 0.00 | 0.00 | 84 | 1014.4 |
| 20260906035522 | 22 | 154 | 0.0 | 0.0 | 0.00 | 0.00 | 0.00 | 84 | 1014.6 |
| 20260906035013 | 22 | 154 | 0.0 | 0.0 | 0.00 | 0.00 | 0.00 | 83 | 1014.7 |
| 20260906034512 | 22 | 154 | 0.0 | 0.0 | 0.00 | 0.00 | 0.00 | 83 | 1014.7 |
| 20260906034007 | 22 | 153 | 0.0 | 0.0 | 0.00 | 0.00 | 0.00 | 83 | 1014.8 |
| 20260906033501 | 22 | 155 | 0.0 | 0.0 | 0.00 | 0.00 | 0.00 | 83 | 1014.3 |
| 20260906032958 | 22 | 155 | 0.0 | 0.0 | 0.00 | 0.00 | 0.00 | 83 | 1014.5 |
| 20260906032454 | 22 | 155 | 0.0 | 0.0 | 0.00 | 0.00 | 0.00 | 83 | 1014.4 |
| 20260906031954 | 22 | 153 | 0.0 | 0.0 | 0.00 | 0.00 | 0.00 | 83 | 1014.3 |
| 20260906031450 | 22 | 152 | 0.0 | 0.0 | 0.00 | 0.00 | 0.00 | 82 | 1014.4 |
| 20260906030945 | 22 | 159 | 0.0 | 0.0 | 0.00 | 0.00 | 0.00 | 82 | 1014.4 |
| 20260906030439 | 22 | 159 | 0.0 | 0.0 | 0.00 | 0.00 | 0.00 | 82 | 1014.5 |
| 20260906025934 | 22 | 159 | 0.0 | 0.0 | 0.00 | 0.00 | 0.00 | 82 | 1014.5 |
| 20260906025428 | 22 | 159 | 0.0 | 0.0 | 0.00 | 0.00 | 0.00 | 82 | 1014.6 |
| 20260906024927 | 22 | 158 | 0.0 | 0.0 | 0.00 | 0.00 | 0.00 | 82 | 1014.6 |
| 20260906024426 | 22 | 158 | 0.0 | 0.0 | 0.00 | 0.00 | 0.00 | 82 | 1014.7 |
| 20260906023921 | 22 | 158 | 0.0 | 0.0 | 0.00 | 0.00 | 0.00 | 81 | 1014.6 |
| 20260906023418 | 22 | 158 | 0.0 | 0.0 | 0.00 | 0.00 | 0.00 | 81 | 1014.5 |
| 20260906022918 | 23 | 158 | 0.0 | 0.0 | 0.00 | 0.00 | 0.00 | 81 | 1014.5 |
| 20260906022413 | 23 | 169 | 0.0 | 0.0 | 0.00 | 0.00 | 0.00 | 81 | 1014.5 |
| 20260906021908 | 23 | 179 | 0.0 | 0.0 | 0.00 | 0.00 | 0.00 | 81 | 1014.6 |
| 20260906021403 | 23 | 180 | 0.0 | 0.0 | 0.00 | 0.00 | 0.00 | 80 | 1014.2 |
| 20260906020857 | 23 | 177 | 0.0 | 0.0 | 0.00 | 0.00 | 0.00 | 80 | 1014.3 |
| 20260906020356 | 23 | 177 | 0.0 | 0.0 | 0.00 | 0.00 | 0.00 | 80 | 1014.5 |
| 20260906015851 | 23 | 177 | 0.0 | 0.0 | 0.00 | 0.00 | 0.00 | 80 | 1014.4 |
| 20260906015350 | 23 | 177 | 0.0 | 0.0 | 0.00 | 0.00 | 0.00 | 80 | 1014.2 |
| 20260906014844 | 23 | 177 | 0.0 | 0.0 | 0.00 | 0.00 | 0.00 | 80 | 1014.2 |
| 20260906014339 | 23 | 177 | 0.0 | 0.0 | 0.00 | 0.00 | 0.00 | 79 | 1014.1 |
| 20260906013835 | 23 | 177 | 0.0 | 0.0 | 0.00 | 0.00 | 0.00 | 79 | 1014.1 |
| 20260906013331 | 23 | 177 | 0.0 | 0.0 | 0.00 | 0.00 | 0.00 | 79 | 1014.1 |
| 20260906012826 | 23 | 173 | 0.0 | 0.0 | 0.00 | 0.00 | 0.00 | 78 | 1014.2 |
| 20260906012321 | 23 | 173 | 0.0 | 0.0 | 0.00 | 0.00 | 0.00 | 78 | 1014.0 |
| 20260906011816 | 23 | 172 | 0.0 | 0.0 | 0.00 | 0.00 | 0.00 | 78 | 1014.0 |
| 20260906011316 | 23 | 171 | 0.0 | 0.0 | 0.00 | 0.00 | 0.00 | 77 | 1013.7 |
| 20260906010812 | 23 | 171 | 0.0 | 0.0 | 0.00 | 0.00 | 0.00 | 77 | 1013.7 |
| 20260906010308 | 24 | 176 | 0.0 | 0.0 | 0.00 | 0.00 | 0.00 | 77 | 1014.0 |
| 20260906005803 | 24 | 168 | 0.0 | 0.0 | 0.00 | 0.00 | 0.00 | 77 | 1013.6 |
| 20260906005301 | 24 | 159 | 0.0 | 1.6 | 0.00 | 0.00 | 0.00 | 76 | 1013.8 |
| 20260906004801 | 24 | 160 | 0.0 | 0.0 | 0.00 | 0.00 | 0.00 | 76 | 1013.5 |
| 20260906004256 | 25 | 160 | 0.0 | 0.0 | 0.00 | 0.00 | 0.00 | 76 | 1013.7 |
| 20260906003756 | 25 | 160 | 0.0 | 0.0 | 0.00 | 0.00 | 0.00 | 75 | 1013.6 |
| 20260906003251 | 25 | 160 | 0.0 | 0.0 | 0.00 | 0.00 | 0.00 | 75 | 1013.8 |
| 20260906002746 | 25 | 160 | 0.0 | 0.0 | 0.00 | 0.00 | 0.00 | 74 | 1013.8 |
| 20260906002246 | 25 | 159 | 0.0 | 0.0 | 0.00 | 0.00 | 0.00 | 74 | 1013.9 |
| 20260906001742 | 25 | 162 | 0.0 | 0.0 | 0.00 | 0.00 | 0.00 | 73 | 1014.1 |
| 20260906001236 | 25 | 176 | 0.0 | 0.0 | 0.00 | 0.00 | 0.00 | 73 | 1013.9 |
| 20260906000732 | 25 | 167 | 0.0 | 0.0 | 0.00 | 0.00 | 0.00 | 72 | 1014.0 |
| 20260906000226 | 25 | 167 | 0.0 | 0.0 | 0.00 | 0.00 | 0.00 | 72 | 1014.0 |
| 20260905235721 | 26 | 167 | 0.0 | 0.0 | 0.00 | 0.00 | 0.00 | 71 | 1013.8 |
| 20260905235215 | 26 | 167 | 0.0 | 0.0 | 0.00 | 0.00 | 0.00 | 71 | 1013.8 |
| 20260905234711 | 26 | 173 | 0.0 | 0.0 | 0.00 | 0.00 | 0.00 | 71 | 1014.0 |
| 20260905234206 | 26 | 174 | 0.0 | 0.0 | 0.00 | 0.00 | 0.00 | 70 | 1014.1 |
| 20260905233701 | 26 | 173 | 0.0 | 0.0 | 0.00 | 0.00 | 0.00 | 71 | 1013.8 |
| 20260905233200 | 26 | 173 | 0.0 | 0.0 | 0.00 | 0.00 | 0.00 | 70 | 1013.6 |
| 20260905232655 | 26 | 173 | 0.0 | 0.0 | 0.00 | 0.00 | 0.00 | 71 | 1013.7 |
| 20260905232151 | 26 | 174 | 0.0 | 0.0 | 0.00 | 0.00 | 0.00 | 71 | 1013.2 |
| 20260905231647 | 26 | 175 | 0.0 | 0.0 | 0.00 | 0.00 | 0.00 | 70 | 1013.2 |
| 20260905231143 | 26 | 174 | 0.0 | 0.0 | 0.00 | 0.00 | 0.00 | 70 | 1013.2 |
| 20260905230633 | 26 | 173 | 0.0 | 0.0 | 0.00 | 0.00 | 0.00 | 71 | 1013.2 |
| 20260905230131 | 26 | 181 | 0.0 | 0.0 | 0.00 | 0.00 | 0.00 | 69 | 1013.3 |
| 20260905225630 | 26 | 181 | 0.0 | 0.0 | 0.00 | 0.00 | 0.00 | 70 | 1013.3 |
| 20260905225120 | 26 | 189 | 0.0 | 1.6 | 0.00 | 0.00 | 0.00 | 70 | 1013.0 |
| 20260905224620 | 26 | 199 | 1.6 | 1.6 | 0.00 | 0.00 | 0.00 | 69 | 1013.1 |
| 20260905224119 | 27 | 182 | 0.0 | 0.0 | 0.00 | 0.00 | 0.00 | 71 | 1013.1 |
| 20260905223616 | 26 | 186 | 0.0 | 0.0 | 0.00 | 0.00 | 0.00 | 70 | 1013.1 |
| 20260905223113 | 27 | 194 | 1.6 | 1.6 | 0.00 | 0.00 | 0.00 | 70 | 1013.2 |
| 20260905222612 | 26 | 182 | 0.0 | 0.0 | 0.00 | 0.00 | 0.00 | 70 | 1013.2 |
| 20260905222107 | 26 | 177 | 0.0 | 0.0 | 0.00 | 0.00 | 0.00 | 70 | 1013.4 |
| 20260905221603 | 26 | 184 | 0.0 | 1.6 | 0.00 | 0.00 | 0.00 | 69 | 1013.3 |
| 20260905221059 | 26 | 177 | 1.6 | 1.6 | 0.00 | 0.00 | 0.00 | 69 | 1013.2 |
| 20260905220554 | 26 | 182 | 0.0 | 0.0 | 0.00 | 0.00 | 0.00 | 68 | 1013.2 |
| 20260905220051 | 26 | 163 | 0.0 | 0.0 | 0.00 | 0.00 | 0.00 | 69 | 1013.2 |
| 20260905215550 | 26 | 184 | 0.0 | 0.0 | 0.00 | 0.00 | 0.00 | 67 | 1013.3 |
| 20260905215046 | 27 | 176 | 0.0 | 0.0 | 0.00 | 0.00 | 0.00 | 62 | 1013.0 |
| 20260905214542 | 27 | 172 | 0.0 | 0.0 | 0.00 | 0.00 | 0.00 | 58 | 1013.0 |
| 20260905214037 | 28 | 172 | 0.0 | 0.0 | 0.00 | 0.00 | 0.00 | 56 | 1012.7 |
| 20260905213532 | 28 | 171 | 0.0 | 0.0 | 0.00 | 0.00 | 0.00 | 54 | 1012.6 |
| 20260905213027 | 28 | 167 | 0.0 | 0.0 | 0.00 | 0.00 | 0.00 | 52 | 1012.6 |
| 20260905212522 | 29 | 167 | 0.0 | 0.0 | 0.00 | 0.00 | 0.00 | 52 | 1012.8 |
| 20260905212021 | 29 | 177 | 0.0 | 0.0 | 0.00 | 0.00 | 0.00 | 52 | 1013.0 |
| 20260905211517 | 30 | 168 | 0.0 | 0.0 | 0.00 | 0.00 | 0.00 | 47 | 1013.0 |
| 20260905211013 | 30 | 160 | 0.0 | 1.6 | 0.00 | 0.00 | 0.00 | 46 | 1012.6 |
| 20260905210508 | 30 | 161 | 0.0 | 1.6 | 0.00 | 0.00 | 0.00 | 45 | 1012.4 |
| 20260905210009 | 30 | 150 | 0.0 | 1.6 | 0.00 | 0.00 | 0.00 | 47 | 1012.3 |
| 20260905205508 | 30 | 159 | 1.6 | 1.6 | 0.00 | 0.00 | 0.00 | 49 | 1012.7 |
| 20260905205007 | 30 | 103 | 1.6 | 3.2 | 0.00 | 0.00 | 0.00 | 53 | 1013.4 |
| 20260905204503 | 31 | 166 | 1.6 | 1.6 | 0.00 | 0.00 | 0.00 | 52 | 1013.2 |
| 20260905204002 | 31 | 92 | 1.6 | 4.8 | 0.00 | 0.00 | 0.00 | 51 | 1012.8 |
| 20260905203458 | 32 | 180 | 1.6 | 1.6 | 0.00 | 0.00 | 0.00 | 49 | 1012.8 |
| 20260905202953 | 32 | 5 | 3.2 | 4.8 | 0.00 | 0.00 | 0.00 | 48 | 1012.8 |
| 20260905202448 | 34 | 339 | 3.2 | 9.7 | 0.00 | 0.00 | 0.00 | 48 | 1012.4 |
| 20260905201943 | 35 | 172 | 0.0 | 0.0 | 0.00 | 0.00 | 0.00 | 49 | 1012.0 |
| 20260905201438 | 35 | 171 | 0.0 | 0.0 | 0.00 | 0.00 | 0.00 | 54 | 1012.3 |
| 20260905200932 | 35 | 171 | 0.0 | 0.0 | 0.00 | 0.00 | 0.00 | 48 | 1012.4 |
| 20260905200428 | 35 | 171 | 0.0 | 0.0 | 0.00 | 0.00 | 0.00 | 47 | 1012.5 |
| 20260905195926 | 35 | 175 | 0.0 | 0.0 | 0.00 | 0.00 | 0.00 | 51 | 1012.6 |
| 20260905195417 | 35 | 162 | 0.0 | 0.0 | 0.00 | 0.00 | 0.00 | 48 | 1012.4 |
| 20260905194912 | 35 | 162 | 0.0 | 0.0 | 0.00 | 0.00 | 0.00 | 48 | 1012.2 |
| 20260905194412 | 35 | 162 | 0.0 | 0.0 | 0.00 | 0.00 | 0.00 | 48 | 1012.2 |
| 20260905193911 | 35 | 160 | 0.0 | 0.0 | 0.00 | 0.00 | 0.00 | 46 | 1012.3 |
| 20260905193406 | 36 | 165 | 0.0 | 0.0 | 0.00 | 0.00 | 0.00 | 44 | 1012.2 |
| 20260905192901 | 36 | 157 | 0.0 | 1.6 | 0.00 | 0.00 | 0.00 | 42 | 1012.2 |
| 20260905192357 | 37 | 184 | 0.0 | 1.6 | 0.00 | 0.00 | 0.00 | 40 | 1012.2 |
| 20260905191857 | 37 | 161 | 0.0 | 1.6 | 0.00 | 0.00 | 0.00 | 39 | 1012.1 |
| 20260905191356 | 37 | 187 | 1.6 | 1.6 | 0.00 | 0.00 | 0.00 | 39 | 1012.4 |
| 20260905190855 | 37 | 176 | 0.0 | 1.6 | 0.00 | 0.00 | 0.00 | 41 | 1012.2 |
| 20260905190348 | 37 | 183 | 1.6 | 1.6 | 0.00 | 0.00 | 0.00 | 40 | 1012.4 |
| 20260905185848 | 37 | 177 | 0.0 | 0.0 | 0.00 | 0.00 | 0.00 | 42 | 1012.4 |
| 20260905185343 | 36 | 195 | 1.6 | 3.2 | 0.00 | 0.00 | 0.00 | 43 | 1012.4 |
| 20260905184842 | 37 | 175 | 0.0 | 1.6 | 0.00 | 0.00 | 0.00 | 42 | 1012.4 |
| 20260905184341 | 37 | 190 | 0.0 | 1.6 | 0.00 | 0.00 | 0.00 | 42 | 1012.7 |
| 20260905183839 | 37 | 190 | 0.0 | 0.0 | 0.00 | 0.00 | 0.00 | 41 | 1012.7 |
| 20260905183335 | 37 | 165 | 0.0 | 1.6 | 0.00 | 0.00 | 0.00 | 40 | 1012.7 |
| 20260905182829 | 36 | 170 | 0.0 | 1.6 | 0.00 | 0.00 | 0.00 | 43 | 1012.8 |
| 20260905182324 | 36 | 177 | 0.0 | 0.0 | 0.00 | 0.00 | 0.00 | 48 | 1013.1 |
| 20260905181819 | 36 | 185 | 0.0 | 0.0 | 0.00 | 0.00 | 0.00 | 49 | 1013.2 |
| 20260905181319 | 36 | 177 | 0.0 | 1.6 | 0.00 | 0.00 | 0.00 | 43 | 1013.3 |
| 20260905180818 | 37 | 175 | 1.6 | 1.6 | 0.00 | 0.00 | 0.00 | 43 | 1013.6 |
| 20260905180313 | 36 | 181 | 0.0 | 0.0 | 0.00 | 0.00 | 0.00 | 44 | 1013.6 |
| 20260905175808 | 36 | 181 | 0.0 | 1.6 | 0.00 | 0.00 | 0.00 | 45 | 1013.7 |
| 20260905175306 | 37 | 217 | 1.6 | 1.6 | 0.00 | 0.00 | 0.00 | 44 | 1013.7 |
| 20260905174758 | 37 | 183 | 0.0 | 0.0 | 0.00 | 0.00 | 0.00 | 42 | 1013.8 |
| 20260905174254 | 38 | 183 | 0.0 | 0.0 | 0.00 | 0.00 | 0.00 | 41 | 1013.9 |
| 20260905173749 | 37 | 187 | 0.0 | 0.0 | 0.00 | 0.00 | 0.00 | 41 | 1013.8 |
| 20260905173245 | 37 | 178 | 0.0 | 1.6 | 0.00 | 0.00 | 0.00 | 43 | 1013.9 |
| 20260905172744 | 36 | 84 | 3.2 | 3.2 | 0.00 | 0.00 | 0.00 | 42 | 1014.0 |
| 20260905172243 | 36 | 51 | 3.2 | 3.2 | 0.00 | 0.00 | 0.00 | 42 | 1014.0 |
| 20260905171740 | 37 | 196 | 0.0 | 1.6 | 0.00 | 0.00 | 0.00 | 43 | 1014.1 |
| 20260905171236 | 36 | 193 | 0.0 | 1.6 | 0.00 | 0.00 | 0.00 | 44 | 1014.3 |
| 20260905170732 | 36 | 183 | 0.0 | 0.0 | 0.00 | 0.00 | 0.00 | 44 | 1014.3 |
| 20260905170228 | 36 | 169 | 0.0 | 1.6 | 0.00 | 0.00 | 0.00 | 45 | 1014.3 |
| 20260905165727 | 35 | 169 | 0.0 | 1.6 | 0.00 | 0.00 | 0.00 | 46 | 1014.6 |
| 20260905165222 | 35 | 197 | 1.6 | 3.2 | 0.00 | 0.00 | 0.00 | 47 | 1014.7 |
| 20260905164722 | 35 | 166 | 1.6 | 1.6 | 0.00 | 0.00 | 0.00 | 47 | 1014.8 |
| 20260905164217 | 35 | 161 | 0.0 | 1.6 | 0.00 | 0.00 | 0.00 | 47 | 1015.1 |
| 20260905163713 | 35 | 195 | 1.6 | 1.6 | 0.00 | 0.00 | 0.00 | 48 | 1014.9 |
| 20260905163209 | 35 | 185 | 1.6 | 1.6 | 0.00 | 0.00 | 0.00 | 48 | 1015.1 |
| 20260905162705 | 34 | 196 | 1.6 | 1.6 | 0.00 | 0.00 | 0.00 | 48 | 1015.0 |
| 20260905162204 | 34 | 189 | 1.6 | 1.6 | 0.00 | 0.00 | 0.00 | 49 | 1015.3 |
| 20260905161700 | 34 | 258 | 1.6 | 3.2 | 0.00 | 0.00 | 0.00 | 48 | 1015.3 |
| 20260905161157 | 34 | 209 | 1.6 | 1.6 | 0.00 | 0.00 | 0.00 | 50 | 1015.2 |
| 20260905160656 | 33 | 180 | 0.0 | 1.6 | 0.00 | 0.00 | 0.00 | 52 | 1015.2 |
| 20260905160156 | 33 | 179 | 0.0 | 1.6 | 0.00 | 0.00 | 0.00 | 53 | 1015.3 |
| 20260905155656 | 33 | 201 | 1.6 | 1.6 | 0.00 | 0.00 | 0.00 | 54 | 1015.3 |
| 20260905155155 | 33 | 186 | 0.0 | 0.0 | 0.00 | 0.00 | 0.00 | 53 | 1015.4 |
| 20260905154649 | 33 | 179 | 1.6 | 1.6 | 0.00 | 0.00 | 0.00 | 54 | 1015.4 |
| 20260905154140 | 33 | 201 | 1.6 | 3.2 | 0.00 | 0.00 | 0.00 | 54 | 1015.5 |
| 20260905153635 | 32 | 179 | 0.0 | 0.0 | 0.00 | 0.00 | 0.00 | 58 | 1015.5 |
| 20260905153131 | 32 | 182 | 0.0 | 1.6 | 0.00 | 0.00 | 0.00 | 57 | 1015.6 |
| 20260905152626 | 32 | 186 | 0.0 | 1.6 | 0.00 | 0.00 | 0.00 | 59 | 1015.5 |
| 20260905152120 | 32 | 196 | 1.6 | 1.6 | 0.00 | 0.00 | 0.00 | 61 | 1015.6 |
| 20260905151615 | 31 | 183 | 0.0 | 1.6 | 0.00 | 0.00 | 0.00 | 61 | 1015.5 |
| 20260905151111 | 31 | 174 | 0.0 | 0.0 | 0.00 | 0.00 | 0.00 | 61 | 1015.5 |
| 20260905150606 | 31 | 173 | 0.0 | 1.6 | 0.00 | 0.00 | 0.00 | 62 | 1015.6 |
| 20260905145557 | 31 | 170 | 0.0 | 1.6 | 0.00 | 0.00 | 0.00 | 65 | 1015.8 |
| 20260905145056 | 31 | 158 | 0.0 | 1.6 | 0.00 | 0.00 | 0.00 | 64 | 1016.0 |
| 20260905144551 | 30 | 175 | 0.0 | 0.0 | 0.00 | 0.00 | 0.00 | 64 | 1015.9 |
| 20260905144049 | 30 | 183 | 0.0 | 0.0 | 0.00 | 0.00 | 0.00 | 67 | 1016.0 |
| 20260905143544 | 30 | 180 | 0.0 | 0.0 | 0.00 | 0.00 | 0.00 | 68 | 1016.1 |
| 20260905143039 | 30 | 188 | 0.0 | 0.0 | 0.00 | 0.00 | 0.00 | 69 | 1016.1 |
| 20260905142538 | 29 | 188 | 0.0 | 1.6 | 0.00 | 0.00 | 0.00 | 67 | 1016.1 |
| 20260905142032 | 29 | 192 | 0.0 | 1.6 | 0.00 | 0.00 | 0.00 | 71 | 1016.1 |
| 20260905141527 | 29 | 186 | 0.0 | 0.0 | 0.00 | 0.00 | 0.00 | 70 | 1016.1 |
| 20260905141023 | 28 | 185 | 0.0 | 0.0 | 0.00 | 0.00 | 0.00 | 71 | 1016.1 |
| 20260905140518 | 28 | 186 | 0.0 | 0.0 | 0.00 | 0.00 | 0.00 | 73 | 1016.1 |
| 20260905140017 | 28 | 186 | 0.0 | 0.0 | 0.00 | 0.00 | 0.00 | 72 | 1016.1 |
| 20260905135513 | 28 | 184 | 0.0 | 0.0 | 0.00 | 0.00 | 0.00 | 74 | 1016.0 |
| 20260905135008 | 27 | 180 | 0.0 | 0.0 | 0.00 | 0.00 | 0.00 | 77 | 1016.0 |
| 20260905134508 | 27 | 180 | 0.0 | 0.0 | 0.00 | 0.00 | 0.00 | 78 | 1016.1 |
| 20260905134007 | 27 | 180 | 0.0 | 0.0 | 0.00 | 0.00 | 0.00 | 78 | 1016.1 |
| 20260905133502 | 27 | 180 | 0.0 | 0.0 | 0.00 | 0.00 | 0.00 | 79 | 1016.2 |
| 20260905133001 | 27 | 182 | 0.0 | 0.0 | 0.00 | 0.00 | 0.00 | 80 | 1016.0 |
| 20260905132456 | 26 | 182 | 0.0 | 0.0 | 0.00 | 0.00 | 0.00 | 80 | 1016.2 |
| 20260905131951 | 26 | 181 | 0.0 | 0.0 | 0.00 | 0.00 | 0.00 | 81 | 1016.2 |
| 20260905131448 | 26 | 181 | 0.0 | 0.0 | 0.00 | 0.00 | 0.00 | 81 | 1016.1 |
| 20260905130948 | 26 | 180 | 0.0 | 0.0 | 0.00 | 0.00 | 0.00 | 83 | 1016.2 |
| 20260905130441 | 25 | 181 | 0.0 | 0.0 | 0.00 | 0.00 | 0.00 | 84 | 1016.3 |
| 20260905125936 | 25 | 185 | 0.0 | 0.0 | 0.00 | 0.00 | 0.00 | 84 | 1016.2 |
| 20260905125430 | 25 | 162 | 0.0 | 0.0 | 0.00 | 0.00 | 0.00 | 85 | 1016.2 |
| 20260905124926 | 25 | 162 | 0.0 | 0.0 | 0.00 | 0.00 | 0.00 | 85 | 1016.4 |
| 20260905124423 | 25 | 162 | 0.0 | 0.0 | 0.00 | 0.00 | 0.00 | 85 | 1016.2 |
| 20260905123922 | 24 | 162 | 0.0 | 0.0 | 0.00 | 0.00 | 0.00 | 85 | 1016.1 |
| 20260905123419 | 24 | 162 | 0.0 | 0.0 | 0.00 | 0.00 | 0.00 | 85 | 1016.1 |
| 20260905122914 | 24 | 162 | 0.0 | 0.0 | 0.00 | 0.00 | 0.00 | 86 | 1016.2 |
| 20260905122413 | 23 | 162 | 0.0 | 0.0 | 0.00 | 0.00 | 0.00 | 86 | 1016.1 |
| 20260905121910 | 23 | 162 | 0.0 | 0.0 | 0.00 | 0.00 | 0.00 | 85 | 1016.0 |
| 20260905121405 | 23 | 162 | 0.0 | 0.0 | 0.00 | 0.00 | 0.00 | 86 | 1016.3 |
| 20260905120903 | 23 | 162 | 0.0 | 0.0 | 0.00 | 0.00 | 0.00 | 85 | 1016.0 |
| 20260905120358 | 23 | 162 | 0.0 | 0.0 | 0.00 | 0.00 | 0.00 | 85 | 1016.1 |
| 20260905115853 | 23 | 162 | 0.0 | 0.0 | 0.00 | 0.00 | 0.00 | 85 | 1015.9 |
| 20260905115352 | 23 | 162 | 0.0 | 0.0 | 0.00 | 0.00 | 0.00 | 85 | 1016.0 |
| 20260905114847 | 23 | 162 | 0.0 | 0.0 | 0.00 | 0.00 | 0.00 | 86 | 1016.1 |
| 20260905114346 | 23 | 162 | 0.0 | 0.0 | 0.00 | 0.00 | 0.00 | 86 | 1015.9 |
| 20260905113845 | 23 | 162 | 0.0 | 0.0 | 0.00 | 0.00 | 0.00 | 86 | 1015.9 |
| 20260905113341 | 23 | 162 | 0.0 | 0.0 | 0.00 | 0.00 | 0.00 | 85 | 1015.8 |
| 20260905112836 | 23 | 163 | 0.0 | 0.0 | 0.00 | 0.00 | 0.00 | 86 | 1015.7 |
| 20260905112332 | 23 | 162 | 0.0 | 0.0 | 0.00 | 0.00 | 0.00 | 85 | 1015.8 |
| 20260905111827 | 23 | 162 | 0.0 | 0.0 | 0.00 | 0.00 | 0.00 | 86 | 1015.8 |
| 20260905111326 | 23 | 162 | 0.0 | 0.0 | 0.00 | 0.00 | 0.00 | 86 | 1015.7 |
| 20260905110826 | 23 | 162 | 0.0 | 0.0 | 0.00 | 0.00 | 0.00 | 85 | 1015.7 |
| 20260905110319 | 23 | 162 | 0.0 | 0.0 | 0.00 | 0.00 | 0.00 | 85 | 1015.6 |
| 20260905105815 | 23 | 162 | 0.0 | 0.0 | 0.00 | 0.00 | 0.00 | 85 | 1015.5 |
| 20260905105314 | 23 | 162 | 0.0 | 0.0 | 0.00 | 0.00 | 0.00 | 85 | 1015.7 |
| 20260905104808 | 23 | 162 | 0.0 | 0.0 | 0.00 | 0.00 | 0.00 | 85 | 1015.4 |
| 20260905104306 | 23 | 162 | 0.0 | 0.0 | 0.00 | 0.00 | 0.00 | 85 | 1015.4 |
| 20260905103805 | 23 | 162 | 0.0 | 0.0 | 0.00 | 0.00 | 0.00 | 85 | 1015.4 |
| 20260905103300 | 23 | 162 | 0.0 | 0.0 | 0.00 | 0.00 | 0.00 | 85 | 1015.4 |
| 20260905102756 | 23 | 162 | 0.0 | 0.0 | 0.00 | 0.00 | 0.00 | 85 | 1015.2 |
| 20260905102253 | 23 | 162 | 0.0 | 0.0 | 0.00 | 0.00 | 0.00 | 85 | 1015.1 |
| 20260905101752 | 23 | 162 | 0.0 | 0.0 | 0.00 | 0.00 | 0.00 | 85 | 1015.3 |
| 20260905101251 | 23 | 162 | 0.0 | 0.0 | 0.00 | 0.00 | 0.00 | 85 | 1015.0 |
| 20260905100745 | 23 | 162 | 0.0 | 0.0 | 0.00 | 0.00 | 0.00 | 85 | 1015.2 |
| 20260905100241 | 23 | 162 | 0.0 | 0.0 | 0.00 | 0.00 | 0.00 | 85 | 1015.2 |
| 20260905095741 | 23 | 162 | 0.0 | 0.0 | 0.00 | 0.00 | 0.00 | 85 | 1015.0 |
| 20260905095241 | 23 | 162 | 0.0 | 0.0 | 0.00 | 0.00 | 0.00 | 85 | 1015.1 |
| 20260905094735 | 23 | 162 | 0.0 | 0.0 | 0.00 | 0.00 | 0.00 | 85 | 1015.2 |
| 20260905094230 | 23 | 162 | 0.0 | 0.0 | 0.00 | 0.00 | 0.00 | 85 | 1015.0 |
| 20260905093724 | 23 | 162 | 0.0 | 0.0 | 0.00 | 0.00 | 0.00 | 85 | 1015.2 |
| 20260905093220 | 23 | 162 | 0.0 | 0.0 | 0.00 | 0.00 | 0.00 | 85 | 1015.2 |
| 20260905092716 | 23 | 162 | 0.0 | 0.0 | 0.00 | 0.00 | 0.00 | 85 | 1015.2 |
| 20260905092211 | 23 | 162 | 0.0 | 0.0 | 0.00 | 0.00 | 0.00 | 85 | 1015.3 |
| 20260905091710 | 23 | 162 | 0.0 | 0.0 | 0.00 | 0.00 | 0.00 | 85 | 1015.1 |
| 20260905091206 | 23 | 162 | 0.0 | 0.0 | 0.00 | 0.00 | 0.00 | 85 | 1015.3 |
| 20260905090705 | 23 | 162 | 0.0 | 0.0 | 0.00 | 0.00 | 0.00 | 85 | 1015.3 |